Regional Weather Roundup
Issued by NWS Portland, ME

Home | Current Version | Previous Version | Text Only | Print | Product List | Glossary On
Versions: 1 2 3 4 5 6 7 8 9 10 11 12 13 14 15 16 17 18 19 20 21 22 23 24 25 26 27 28 29 30 31 32 33 34 35 36 37 38 39 40 41 42 43 44 45 46 47 48 49 50
000
ASUS41 KGYX 241210
RWRGYX
WEATHER ROUNDUP FOR MAINE AND NEW HAMPSHIRE
NATIONAL WEATHER SERVICE GRAY ME
800 AM EDT SUN MAY 24 2015

MEZ002-005-006-010-012-015-018-020-021-024-026-027-029-241300-
MAINE

CITY           SKY/WX    TMP DP  RH WIND       PRES   REMARKS
PORTLAND       MOSUNNY   57  34  41 SW9       30.17S
6HR MIN TEMP:  50; 6HR MAX TEMP:  57;

BAR HARBOR     CLOUDY    50  41  71 SW5       30.11S
WISCASSET      PTSUNNY   53  34  48 VRB3      30.16S
6HR MIN TEMP:  38; 6HR MAX TEMP:  53;

ROCKLAND       CLOUDY    52  36  54 W7        30.13F
FRYEBURG       SUNNY     64  33  31 SW7       30.14F
6HR MIN TEMP:  47; 6HR MAX TEMP:  64;

LEWISTONAUBURN MOSUNNY   59  34  38 SW10      30.14F
AUGUSTA        MOSUNNY   55  32  41 SW13G20   30.13S
6HR MIN TEMP:  41; 6HR MAX TEMP:  55;

WATERVILLE     MOSUNNY   55  34  44 SW12      30.10S
BANGOR         PTSUNNY   53  36  52 S3        30.09F
6HR MIN TEMP:  44; 6HR MAX TEMP:  53;

GREENVILLE       N/A     55  37  50 VRB5      30.03F
6HR MIN TEMP:  39; 6HR MAX TEMP:  55;

MILLINOCKET    MOSUNNY   54  35  48 VRB3      30.04F
6HR MIN TEMP:  45; 6HR MAX TEMP:  54; 6HR PCP: TRACE;

HOULTON        CLOUDY    47  38  71 SW13G20   29.99S
6HR MIN TEMP:  42; 6HR MAX TEMP:  47; 6HR PCP:  0.05;

PRESQUE ISLE   CLOUDY    50  34  53 SW14      29.96R
6HR MIN TEMP:  45; 6HR MAX TEMP:  50;

FRENCHVILLE    CLOUDY    50  34  54 W14G20    29.90S
6HR MIN TEMP:  39; 6HR MAX TEMP:  50;

CARIBOU        CLOUDY    50  36  58 SW10      29.93S
6HR MIN TEMP:  42; 6HR MAX TEMP:  50; 6HR PCP: TRACE;

$$

NHZ002-005-008-009-011-012-014-241300-
NEW HAMPSHIRE

CITY           SKY/WX    TMP DP  RH WIND       PRES   REMARKS
PORTSMOUTH     MOSUNNY   59  35  41 W12       30.19S
ROCHESTER      SUNNY     57  35  43 CALM      30.19F
6HR MIN TEMP:  43; 6HR MAX TEMP:  57;

NASHUA         SUNNY     64  34  32 VRB3      30.24S
MANCHESTER     MOSUNNY   61  35  37 S6        30.20F
6HR MIN TEMP:  47; 6HR MAX TEMP:  61;

CONCORD        SUNNY     62  31  31 W7        30.21S
6HR MIN TEMP:  42; 6HR MAX TEMP:  62;

LACONIA        SUNNY     61  30  31 SW14      30.17S
PLYMOUTH       FAIR      48  42  79 E3        30.19S
BERLIN         SUNNY     59  33  37 NW7       30.14S
6HR MIN TEMP:  29; 6HR MAX TEMP:  60; 6HR PCP: TRACE;

WHITEFIELD     SUNNY     59  34  39 SW5       30.16F
6HR MIN TEMP:  34; 6HR MAX TEMP:  59;

JAFFREY        SUNNY     53  36  52 S9        30.27S
6HR MIN TEMP:  45; 6HR MAX TEMP:  53;

KEENE          SUNNY     50  37  62 CALM      30.28S
LEBANON        SUNNY     56  39  53 NW3       30.21S
6HR MIN TEMP:  38; 6HR MAX TEMP:  56;

MT WASHINGTON  NOT AVBL
$$

VTZ005-007-008-241300-
VERMONT

CITY           SKY/WX    TMP DP  RH WIND       PRES   REMARKS
ST JOHNSBURY     N/A     51  36  56 MISG      30.16F
MONTPELIER     SUNNY     60  32  34 SW7       30.22S
BURLINGTON     MOSUNNY   59  34  39 S10       30.18S
$$

MAZ007-012-024-CTZ003-RIZ002-NYZ038-NYZ072-241300-
SOUTHERN NEW ENGLAND AND NY

CITY           SKY/WX    TMP DP  RH WIND       PRES   REMARKS
BOSTON         MOSUNNY   60  37  42 SW14      30.26S
WORCESTER      SUNNY     58  33  39 W16       30.28S
NANTUCKET      SUNNY     57  51  80 SW18      30.34R
PROVIDENCE     MOSUNNY   61  42  49 W8        30.31S
HARTFORD       MOSUNNY   56  43  61 S6        30.31R
ALBANY         MOSUNNY   54  37  52 S5        30.31R
NEW YORK CITY  MOSUNNY   61  41  47 SW10      30.36R
$$

ANZ081-ANZ082-ANZ150-NHZ014-MEZ023>029-241300-
COASTAL MARINE OBSERVATIONS

STATION/POSITION TIME  TEMP    WIND        PRES    WAVE
                       AIR SEA DIR/SP/G            HT/PER
                 (UTC) (F)     (DEG/KT/KT) (MB)    (FT/S)
MOUNT DESERT ROC 1200   47     220/ 20/ 22   N/A
MATINICUS ROCK   1100   48     250/ 22/ 24   N/A
ISLE OF SHOALS   1100   51     240/ 14/ 16   N/A
JEFFREYS LEDGE   1103      47                N/A     3/ 4
CASHES LEDGE BUO 1150   51 47                N/A     5/ 5
GEORGES BANK BUO 1150   51 47  220/ 12/ 14   N/A     4/ 6
$$

.............KEY..............
   WCI - WIND CHILL
   TC  - TEMPERATURE IN CELSIUS
   VSB - VISIBILITY IN MILES
   HX  - HEAT INDEX
   FAIR- INDICATES FEW OR NO CLOUDS BELOW 12,000 FT, WITH NO
         SIGNIFICANT WEATHER AND/OR OBSTRUCTIONS TO VISIBILITY.




USA.gov is the U.S. government's official web portal to all federal, state and local government web resources and services.